This demonstration page uses our WeatherBlox Daily Observations layout. Learn more.

Left ArrowRight Arrow

Hourly Observations for April 21, 2021

Temp ( °F °C ) Dew Point ( °F °C ) Humidity (%) Winds ( mph kmh ) Pressure ( in mb ) Visibility ( mi km ) Precip ( " mm )
12:15 am 00:15 Clear 30 -1.2 24 -4.6 78 78 NW 7 11 30.36 1028 10 16.0934 0 0
12:35 am 00:35 Clear 29 -1.6 23 -5 78 78 WNW 6 9 30.36 1028 10 16.0934 0 0
12:55 am 00:55 Clear 29 -1.7 24 -4.6 81 81 NW 6 9 30.36 1028 10 16.0934 0 0
1:15 am 01:15 Clear 30 -0.9 23 -5.1 73 73 NNW 8 13 30.36 1028 10 16.0934 0 0
1:35 am 01:35 Clear 31 -0.7 23 -5 73 73 NNW 8 13 30.36 1028 10 16.0934 0 0
1:55 am 01:55 Clear 31 -0.7 24 -4.7 75 75 NNW 9 15 30.37 1029 10 16.0934 0 0
2:15 am 02:15 Clear 31 -0.3 24 -4.2 75 75 NNW 8 13 30.36 1028 10 16.0934 0 0
2:35 am 02:35 Mostly Cloudy 31 -0.4 25 -4.1 76 76 NNW 8 13 30.36 1028 10 16.0934 0 0
2:55 am 02:55 Cloudy 32 -0.1 26 -3.5 78 78 NNW 7 11 30.36 1028 10 16.0934 0 0
3:15 am 03:15 Mostly Cloudy 31 -0.7 25 -3.8 80 80 NW 7 11 30.36 1028 10 16.0934 0 0
3:35 am 03:35 Partly Cloudy 30 -1 25 -3.7 82 82 NW 8 13 30.37 1028 10 16.0934 0 0
3:55 am 03:55 Partly Cloudy 30 -1 26 -3.5 83 83 NW 7 11 30.38 1029 10 16.0934 0 0
4:15 am 04:15 Mostly Cloudy 30 -1 26 -3.2 85 85 NW 8 13 30.38 1029 10 16.0934 0 0
4:35 am 04:35 Partly Cloudy 29 -1.5 26 -3.5 86 86 NNW 7 11 30.38 1029 10 16.0934 0 0
4:55 am 04:55 Clear 29 -1.6 26 -3.5 87 87 NNW 9 15 30.38 1029 10 16.0934 0 0
5:15 am 05:15 Clear 29 -1.6 26 -3.4 88 88 NNW 8 13 30.39 1029 10 16.0934 0 0
5:35 am 05:35 Clear 29 -1.7 26 -3.5 88 88 NW 9 15 30.39 1029 10 16.0934 0 0
5:55 am 05:55 Clear 28 -2 25 -3.7 88 88 NW 8 13 30.41 1030 10 16.0934 0 0
6:15 am 06:15 Clear 28 -2.3 25 -3.8 90 90 NW 8 13 30.41 1030 10 16.0934 0 0
6:35 am 06:35 Clear 28 -2.4 25 -4 89 89 NW 8 13 30.41 1030 10 16.0934 0 0
6:55 am 06:55 Sunny 28 -2.5 25 -4 90 90 NW 8 13 30.42 1030 10 16.0934 0 0
7:15 am 07:15 Sunny 27 -2.8 24 -4.3 90 90 WNW 7 11 30.43 1031 10 16.0934 0 0
7:35 am 07:35 Sunny 28 -2.3 25 -4 88 88 WNW 5 7 30.44 1031 10 16.0934 0 0
7:55 am 07:55 Sunny 28 -2 25 -3.7 88 88 WNW 7 11 30.45 1031 10 16.0934 0 0
8:15 am 08:15 Sunny 30 -1 27 -3 86 86 NW 9 15 30.44 1031 10 16.0934 0 0
8:35 am 08:35 Sunny 31 -0.3 26 -3.1 82 82 NW 9 15 30.44 1031 10 16.0934 0 0
8:55 am 08:55 Sunny 32 0 26 -3.1 80 80 NW 9 15 30.44 1031 10 16.0934 0 0
9:15 am 09:15 Sunny 33 0.6 26 -3.1 77 77 NW 9 15 30.43 1030 10 16.0934 0 0
9:35 am 09:35 Sunny 34 1.1 25 -3.8 70 70 NW 10 17 30.43 1030 10 16.0934 0 0
9:55 am 09:55 Sunny 35 1.5 24 -4.6 64 64 NW 10 17 30.42 1030 10 16.0934 0 0
10:15 am 10:15 Sunny 36 2.2 23 -4.9 60 60 NNW 10 17 30.41 1030 10 16.0934 0 0
10:35 am 10:35 Sunny 37 2.5 22 -5.7 55 55 NNW 9 15 30.4 1030 10 16.0934 0 0
10:55 am 10:55 Partly Cloudy 38 3.1 21 -6.2 51 51 N 8 13 30.4 1029 10 16.0934 0 0
11:15 am 11:15 Partly Cloudy 37 2.6 19 -7.5 48 48 NW 7 11 30.41 1030 10 16.0934 0 0
11:35 am 11:35 Mostly Cloudy 39 3.8 20 -6.6 47 47 NW 7 11 30.39 1029 10 16.0934 0 0
11:55 am 11:55 Mostly Cloudy 38 3.6 19 -7.4 45 45 NNW 6 9 30.39 1029 10 16.0934 0 0
12:15 pm 12:15 Mostly Cloudy 39 4 21 -6.2 48 48 NNW 6 9 30.38 1029 10 16.0934 0 0
12:35 pm 12:35 Mostly Cloudy 39 4 20 -6.4 47 47 NNW 7 11 30.37 1028 10 16.0934 0 0
12:55 pm 12:55 Mostly Cloudy 39 3.9 20 -6.5 47 47 NNW 7 11 30.36 1028 10 16.0934 0 0
1:15 pm 13:15 Mostly Cloudy 39 4.1 21 -6.1 48 48 WNW 5 7 30.35 1028 10 16.0934 0 0
1:35 pm 13:35 Partly Cloudy 42 5.3 21 -6.1 44 44 NW 5 7 30.33 1027 10 16.0934 0 0
1:55 pm 13:55 Partly Cloudy 42 5.5 22 -5.6 45 45 WSW 6 9 30.31 1027 10 16.0934 0 0
2:15 pm 14:15 Partly Cloudy 42 5.7 20 -6.6 41 41 W 3 6 30.3 1026 10 16.0934 0 0
2:35 pm 14:35 Partly Cloudy 42 5.7 19 -7.1 40 40 WNW 3 6 30.29 1026 10 16.0934 0 0
2:55 pm 14:55 Mostly Cloudy 44 6.6 21 -6.3 40 40 W 10 17 30.27 1025 10 16.0934 0 0
3:15 pm 15:15 Partly Cloudy 44 6.6 20 -6.4 39 39 NW 10 17 30.27 1025 10 16.0934 0 0
3:35 pm 15:35 Partly Cloudy 44 6.7 20 -6.7 38 38 WNW 3 6 30.26 1025 10 16.0934 0 0
3:55 pm 15:55 Partly Cloudy 45 7.2 20 -6.9 36 36 NNW 5 7 30.25 1024 10 16.0934 0 0
4:15 pm 16:15 Partly Cloudy 46 7.5 20 -6.7 36 36 Calm 30.24 1024 10 16.0934 0 0
4:35 pm 16:35 Sunny 46 7.9 20 -6.5 36 36 N 6 9 30.22 1023 10 16.0934 0 0
4:55 pm 16:55 Sunny 46 7.9 19 -7.1 34 34 W 8 13 30.21 1023 10 16.0934 0 0
5:15 pm 17:15 Sunny 46 7.8 19 -7.3 34 34 WNW 8 13 30.2 1023 10 16.0934 0 0
5:35 pm 17:35 Sunny 46 7.9 18 -7.8 32 32 W 5 7 30.2 1023 10 16.0934 0 0
5:55 pm 17:55 Sunny 46 8 18 -7.8 32 32 Calm 30.19 1022 10 16.0934 0 0
6:15 pm 18:15 Sunny 47 8.1 18 -7.6 32 32 W 5 7 30.19 1022 10 16.0934 0 0
6:35 pm 18:35 Sunny 47 8.2 19 -7.5 32 32 W 7 11 30.19 1022 10 16.0934 0 0
6:55 pm 18:55 Sunny 46 8 18 -7.8 32 32 Calm 30.18 1022 10 16.0934 0 0
7:15 pm 19:15 Sunny 46 7.6 18 -7.9 33 33 Calm 30.18 1022 10 16.0934 0 0
7:35 pm 19:35 Sunny 46 7.6 18 -7.9 33 33 Calm 30.17 1022 10 16.0934 0 0
7:55 pm 19:55 Sunny 45 7.4 18 -8 33 33 Calm 30.18 1022 10 16.0934 0 0
8:15 pm 20:15 Sunny 45 7 18 -7.8 34 34 Calm 30.18 1022 10 16.0934 0 0
8:35 pm 20:35 Clear 42 5.3 22 -5.3 47 47 S 3 6 30.19 1022 10 16.0934 0 0
8:55 pm 20:55 Clear 41 4.8 22 -5.4 48 48 S 5 7 30.19 1022 10 16.0934 0 0
9:15 pm 21:15 Clear 39 4 23 -5.2 52 52 SSE 5 7 30.21 1023 10 16.0934 0 0
9:35 pm 21:35 Clear 38 3.2 22 -5.4 54 54 SE 3 6 30.21 1023 10 16.0934 0 0
9:55 pm 21:55 Clear 35 1.6 25 -4.1 66 66 SE 5 7 30.24 1024 10 16.0934 0 0
10:15 pm 22:15 Clear 37 2.6 22 -5.5 56 56 SSE 5 7 30.23 1024 10 16.0934 0 0
10:35 pm 22:35 Clear 36 2.1 21 -6 55 55 SE 6 9 30.23 1024 10 16.0934 0 0
10:55 pm 22:55 Clear 35 1.6 22 -5.8 58 58 SSE 5 7 30.23 1024 10 16.0934 0 0
11:15 pm 23:15 Clear 35 1.6 21 -6.1 57 57 S 5 7 30.24 1024 10 16.0934 0 0
11:35 pm 23:35 Clear 35 1.6 21 -6.1 57 57 S 5 7 30.24 1024 10 16.0934 0 0
11:55 pm 23:55 Clear 34 0.9 21 -6.1 60 60 S 5 7 30.24 1024 10 16.0934 0 0

Powered by AerisWeather